AirNav   Everest Fuels
 
 1141 users online  

1R4 Woodworth Airport
Woodworth, Louisiana, USA

GOING TO WOODWORTH?


FAA INFORMATION EFFECTIVE 16 JULY 2020

Location

FAA Identifier: 1R4
Lat/Long: 31-07-34.8700N 092-30-04.6400W
31-07.581167N 092-30.077333W
31.1263528,-92.5012889
(estimated)
Elevation: 140 ft. / 43 m (estimated)
Variation: 00W (2020)
From city: 2 miles S of WOODWORTH, LA
Time zone: UTC -5 (UTC -6 during Standard Time)
Zip code: 71430

Airport Operations

Airport use: Open to the public
Activation date: 01/1960
Control tower: no
ARTCC: HOUSTON CENTER
FSS: DE RIDDER FLIGHT SERVICE STATION
NOTAMs facility: DRI (NOTAM-D service available)
Attendance: UNATNDD
Wind indicator: lighted, WINDSOCK LGTS OTS INDEFLY.
Segmented circle: no
Lights: ACTVT MIRL RY 01/19 - 122.8.
Beacon: white-green (lighted land airport)
Operates sunset to sunrise.

Airport Communications

CTAF: 122.9
WX ASOS at AEX (12 nm N): 123.975 (318-442-6583)
WX ASOS at ESF (19 nm NE): 119.425 (318-484-9031)

Nearby radio navigation aids

VOR radial/distance  VOR name  Freq  Var
AEXr177/7.8ALEXANDRIA VORTAC116.1003E
FXUr087/(36.9)POLK VOR108.4002E

 
NDB name  Hdg/Dist  Freq  Var  ID
DURALDE353/34.126302EECY . -.-. -.--
GATOR078/35.635902EGUV --. ..- ...-

Airport Services

Parking: tiedowns

Runway Information

Runway 1/19

Dimensions: 3100 x 75 ft. / 945 x 23 m
Surface: asphalt, in fair condition
NUMEROUS 2 INCH CRACKS ON RY.
Weight bearing capacity: 
Single wheel: 12.0
Runway edge lights: medium intensity
RUNWAY 1  RUNWAY 19
Latitude: 31-07.337000N31-07.825333N
Longitude: 092-30.165500W092-29.989167W
Traffic pattern: leftleft
Markings: basic, in good conditionbasic, in good condition
Visual slope indicator: 2-box SAVASI on right (4.00 degrees glide path)
SAVASI OTS INDEFLY.
2-box SAVASI on right (4.00 degrees glide path)
SAVASI OTS INDEFLY.
Obstructions: 64 ft. trees, 553 ft. from runway, 69 ft. left of centerline, 5:1 slope to clear63 ft. trees, 635 ft. from runway, 128 ft. right of centerline, 6:1 slope to clear

Airport Ownership and Management from official FAA records

Ownership: Publicly-owned
Owner: LA DEPT OF AG AND FORESTRY
PO BOX 298
WOODWORTH, LA 71485
Phone 318-487-5989
Manager: RENE' SIMON
LA DEPT OF AG AND FORESTRY, 5825 FLORIDA BLVD, SUITE 1002
BATON ROUGE, LA 70806-3481
Phone (225) 922-8074
ADDITIONAL CONTACT DAMIAN JOHNSON 225-301-8144

Airport Operational Statistics

Aircraft based on the field: 11
Single engine airplanes: 9
Helicopters: 2
    
Aircraft operations: avg 49/day *
56% local general aviation
44% transient general aviation
* for 12-month period ending 25 June 2019

Additional Remarks

HELICOPTER TRAFFIC ON FIELD.
FOR CD CTC POLK APCH AT 337-531-2352.

Instrument Procedures

There are no published instrument procedures at 1R4.

Some nearby airports with instrument procedures:

KAEX - Alexandria International Airport (12 nm N)
2R6 - Bunkie Municipal Airport (17 nm SE)
KESF - Esler Regional Airport (19 nm NE)
KMKV - Marksville Municipal Airport (22 nm E)
KACP - Allen Parish Airport (25 nm SW)
 
Loc | Ops | Rwys | IFR | FBO | Links
Com | Nav | Svcs | Stats | Notes
Area around 1R4 (Woodworth Airport)
 
Road maps at: MapQuest Bing Google
 
Aerial photo
No photo
 
Sectional chart

 
Airport distance calculator
Flying to Woodworth Airport? Find the distance to fly.

From to 1R4

Sunrise and sunset
Times for 07-Aug-2020
 Local
(UTC-5)
 Zulu
(UTC)
Morning civil twilight06:0611:06
Sunrise06:3211:32
Sunset19:5900:59
Evening civil twilight20:2501:25

Current date and time
Zulu (UTC)  07-Aug-2020 22:43:13
Local (UTC-5)  07-Aug-2020 17:43:13
 
METAR
KAEX 
13nm N 
072153Z 06005KT 10SM CLR 33/20 A3003 RMK AO2 SLP171 T03280200
KESF 
20nm NE 
072153Z AUTO VRB05KT 10SM CLR 34/19 A3004 RMK AO2 SLP171 T03390194
KBKB 
22nm W 
072154Z AUTO 00000KT 10SM CLR 33/22 A3002 RMK AO2 SLP190 T03330217
KACP 
25nm SW 
072215Z AUTO 01003KT 10SM CLR 33/21 A3004 RMK AO2
KPOE 
25nm W 
072158Z AUTO 09005KT 10SM FEW050 33/22 A3006 RMK AO2 SLP178 T03300215
TAF
KAEX 
13nm N 
071720Z 0718/0818 VRB03KT P6SM SKC
NOTAMs
Click for the latest NOTAMs
NOTAMs are issued by the DoD/FAA and will open in a separate window not controlled by AirNav.

 

 
 

Would you like to see your business listed on this page?

 If your business provides an interesting product or service to pilots, flight crews, aircraft, or users of the Woodworth Airport, you should consider listing it here.  To start the listing process, click on the button below
 
Add a business
 

Other Pages about Woodworth Airport

Update a link
 
Copyright © AirNav, LLC. All rights reserved. Privacy Policy  Contact